Hourly Data Report for February 11, 2017

All times are specified in Local Standard Time (LST). Add 1 hour to adjust for Daylight Saving Time where and when it is observed.

TORONTO INTL A
ONTARIO

43°40'36.000" N
79°37'50.000" W
173.40 m
6158731
71624
YYZ

Download Data

Hourly Data (February 2017)
Hourly Data Report for February 11, 2017
TIME Temp Definition
°C
Dew Point Definition
°C
Rel Hum Definition
%
Wind Dir Definition
10's deg

Wind Spd Definition
km/h
Visibility Definition
km
Stn Press Definition
kPa
Hmdx Definition


Wind Chill Definition


Weather Definition


00:00 -2.2 -8.5 62 16 8 24.1 98.66   -5 LegendNANA
01:00 -2.1 -8.2 63 17 8 24.1 98.59   -5 Mostly Cloudy
02:00 -1.9 -7.8 64 20 9 24.1 98.57   -5 LegendNANA
03:00 -1.9 -7.4 66 21 6 24.1 98.58   -4 LegendNANA
04:00 -2.0 -7.0 69 23 8 24.1 98.60   -5 Cloudy
05:00 -2.0 -6.4 72 24 15 24.1 98.65   -7 LegendNANA
06:00 -3.2 -6.9 76 25 14 24.1 98.69   -8 LegendNANA
07:00 -3.0 -6.5 77 26 15 24.1 98.75   -8 Mostly Cloudy
08:00 -1.7 -5.2 77 27 17 24.1 98.91   -7 LegendNANA
09:00 -0.6 -4.3 76 27 12 24.1 98.96   -5 LegendNANA
10:00 -0.1 -4.0 75 27 13 17.7 99.04   -4 Cloudy
11:00 0.6 -3.2 76 28 10 16.1 99.08     LegendNANA
12:00 1.9 -2.4 73 28 9 16.1 99.19     LegendNANA
13:00 3.0 -2.3 68 28 12 16.1 99.22     Cloudy
14:00 3.2 -1.9 69 29 14 24.1 99.22     LegendNANA
15:00 3.2 -1.7 70 32 9 24.1 99.25     LegendNANA
16:00 3.3 -1.7 70 29 6 24.1 99.33     Cloudy
17:00 2.2 -1.8 75 5 12 16.1 99.42     LegendNANA
18:00 1.6 -2.2 76 4 9 16.1 99.55     LegendNANA
19:00 1.8 -2.2 75 7 5 19.3 99.61     Cloudy
20:00 1.9 -1.9 76 7 5 19.3 99.65     LegendNANA
21:00 1.7 -1.7 78 6 6 19.3 99.63     LegendNANA
22:00 1.8 -2.2 75 9 8 19.3 99.64     Cloudy
23:00 1.7 -2.4 74 8 8 19.3 99.65     LegendNANA

Notes on Data Quality.

Legend

  • E = Estimated
  • M = Missing
  • NA = Not Available
Date modified: